Location: Bucquoy
(50.1391°N, 2.7097°E)
Time: 02:04:31
(UTC+00:00)

COSMOS 2487 - Pass Details

Date: 06 May 2021
Orbit: 431 x 433 km, 74.7° (Epoch: 24 June)

Event Time Altitude Azimuth Distance (km) Brightness Sun altitude
Rises 00:54:29 0° 346° (NNW) 2,418 7.1 -21.6°
Reaches altitude 10° 00:56:47 10° 359° (N) 1,545 6.1 -21.5°
Maximum altitude 00:59:41 26° 58° (ENE) 899 4.4 -21.3°
Enters shadow 01:01:37 16° 106° (ESE) 1,223 4.6 -21.2°
